,,Stat6,,Stat2,,Stat8,,Stat9,,Stat10,,Wind1,,Wind1,
time,status,PA1M_AVG,status,PR1M_SUM,status,RH1M_AVG,status,SR1M_AVG,status,TA1M_AVG,status,W1dAve1m,status,W1sAve1m,
2007-05-25, 07:00:03,VALID,916.455,VALID,0,VALID,94.0377,VALID,136.016,VALID,19.1218,VALID,137,VALID,0.821403,
2007-05-25, 07:01:00,VALID,916.425,VALID,0,VALID,93.4617,VALID,139.124,VALID,19.2127,VALID,137,VALID,0.605374,
2007-05-25, 07:02:00,VALID,916.426,VALID,0,VALID,93.5113,VALID,142.401,VALID,19.3619,VALID,140,VALID,0.807546,
2007-05-25, 07:03:00,VALID,916.412,VALID,0,VALID,93.3269,VALID,146.069,VALID,19.4919,VALID,145,VALID,1.05378,
2007-05-25, 07:04:00,VALID,916.414,VALID,0,VALID,92.8767,VALID,149.16,VALID,19.5795,VALID,139,VALID,0.767485,
2007-05-25, 07:05:00,VALID,916.441,VALID,0,VALID,92.7025,VALID,153.082,VALID,19.7028,VALID,127,VALID,0.771984,
2007-05-25, 07:06:00,VALID,916.444,VALID,0,VALID,92.8526,VALID,157.073,VALID,19.8034,VALID,122,VALID,0.57758,
2007-05-25, 07:07:00,VALID,916.463,VALID,0,VALID,92.7992,VALID,161.454,VALID,19.9105,VALID,132,VALID,0.567522,
2007-05-25, 07:08:00,VALID,916.482,VALID,0,VALID,92.7254,VALID,165.852,VALID,20.0208,VALID,148,VALID,0.41353,
2007-05-25, 07:09:00,VALID,916.487,VALID,0,VALID,91.9752,VALID,169.35,VALID,20.1052,VALID,151,VALID,0.809659,
2007-05-25, 07:10:00,VALID,916.487,VALID,0,VALID,91.422,VALID,172.423,VALID,20.1311,VALID,144,VALID,1.04457,
2007-05-25, 07:11:00,VALID,916.508,VALID,0,VALID,91.4131,VALID,175.769,VALID,20.0762,VALID,153,VALID,1.36793,
2007-05-25, 07:12:00,VALID,916.488,VALID,0,VALID,91.5339,VALID,179.148,VALID,20.0175,VALID,171,VALID,1.52707,
2007-05-25, 07:13:00,VALID,916.518,VALID,0,VALID,91.7514,VALID,182.357,VALID,19.9429,VALID,152,VALID,0.868096,
2007-05-25, 07:14:00,VALID,916.52,VALID,0,VALID,92.0209,VALID,185.397,VALID,19.8386,VALID,145,VALID,1.33358,
2007-05-25, 07:15:00,VALID,916.513,VALID,0,VALID,92.513,VALID,188.283,VALID,19.7123,VALID,152,VALID,1.57184,
2007-05-25, 07:16:00,VALID,916.515,VALID,0,VALID,93.2366,VALID,192.138,VALID,19.6451,VALID,150,VALID,1.48761,
2007-05-25, 07:17:00,VALID,916.498,VALID,0,VALID,93.5787,VALID,196.163,VALID,19.567,VALID,152,VALID,1.76925,
2007-05-25, 07:18:00,VALID,916.488,VALID,0,VALID,94.0161,VALID,200,VALID,19.5343,VALID,157,VALID,1.93979,
2007-05-25, 07:19:00,VALID,916.462,VALID,0,VALID,94.3518,VALID,204.228,VALID,19.5124,VALID,166,VALID,1.37952,
2007-05-25, 07:20:00,VALID,916.44,VALID,0,VALID,94.7104,VALID,208.032,VALID,19.5605,VALID,164,VALID,1.32608,
2007-05-25, 07:21:00,VALID,916.436,VALID,0,VALID,94.47,VALID,211.004,VALID,19.6289,VALID,164,VALID,1.62872,
2007-05-25, 07:22:00,VALID,916.418,VALID,0,VALID,94.217,VALID,215.3,VALID,19.6641,VALID,154,VALID,1.42702,
2007-05-25, 07:23:00,VALID,916.422,VALID,0,VALID,94.0631,VALID,218.187,VALID,19.739,VALID,152,VALID,1.47005,
2007-05-25, 07:24:00,VALID,916.448,VALID,0,VALID,93.5443,VALID,221.277,VALID,19.8171,VALID,150,VALID,1.65149,
2007-05-25, 07:25:00,VALID,916.461,VALID,0,VALID,92.9975,VALID,224.555,VALID,19.898,VALID,142,VALID,1.9096,
2007-05-25, 07:26:00,VALID,916.478,VALID,0,VALID,92.8907,VALID,228.341,VALID,20.0213,VALID,157,VALID,1.5125,
2007-05-25, 07:27:00,VALID,916.477,VALID,0,VALID,92.1379,VALID,232.858,VALID,20.1344,VALID,141,VALID,1.6542,
2007-05-25, 07:28:00,VALID,916.492,VALID,0,VALID,92.2473,VALID,235.983,VALID,20.2831,VALID,115,VALID,1.21476,
2007-05-25, 07:29:00,VALID,916.499,VALID,0,VALID,91.6687,VALID,239.82,VALID,20.391,VALID,131,VALID,1.57682,
2007-05-25, 07:30:00,VALID,916.485,VALID,0,VALID,91.5568,VALID,244.015,VALID,20.4891,VALID,135,VALID,1.49647,
2007-05-25, 07:31:00,VALID,916.511,VALID,0,VALID,91.1359,VALID,247.564,VALID,20.5538,VALID,133,VALID,1.64577,
2007-05-25, 07:32:00,VALID,916.509,VALID,0,VALID,91.7475,VALID,252.029,VALID,20.6382,VALID,124,VALID,1.44569,
2007-05-25, 07:33:00,VALID,916.5,VALID,0,VALID,91.4068,VALID,254.407,VALID,20.7131,VALID,134,VALID,1.48808,
2007-05-25, 07:34:00,VALID,916.501,VALID,0,VALID,91.2923,VALID,259.077,VALID,20.8397,VALID,141,VALID,1.40214,
2007-05-25, 07:35:00,VALID,916.515,VALID,0,VALID,90.3208,VALID,263.169,VALID,20.9533,VALID,150,VALID,1.61855,
2007-05-25, 07:36:00,VALID,916.522,VALID,0,VALID,89.1039,VALID,266.769,VALID,21.0312,VALID,130,VALID,1.68083,
2007-05-25, 07:37:00,VALID,916.539,VALID,0,VALID,89.2361,VALID,271.048,VALID,21.1223,VALID,145,VALID,1.5863,
2007-05-25, 07:38:00,VALID,916.554,VALID,0,VALID,88.8521,VALID,274.189,VALID,21.1575,VALID,141,VALID,1.58381,
2007-05-25, 07:39:00,VALID,916.575,VALID,0,VALID,89.1217,VALID,277.688,VALID,21.2165,VALID,131,VALID,1.24655,
2007-05-25, 07:40:00,VALID,916.595,VALID,0,VALID,88.3091,VALID,281.084,VALID,21.3201,VALID,136,VALID,1.97075,
2007-05-25, 07:41:00,VALID,916.602,VALID,0,VALID,87.3198,VALID,285.38,VALID,21.4332,VALID,112,VALID,2.0291,
2007-05-25, 07:42:00,VALID,916.625,VALID,0,VALID,86.4081,VALID,288.742,VALID,21.5914,VALID,132,VALID,2.23419,
2007-05-25, 07:43:00,VALID,916.621,VALID,0,VALID,86.2517,VALID,292.699,VALID,21.7275,VALID,135,VALID,1.78199,
2007-05-25, 07:44:00,VALID,916.633,VALID,0,VALID,85.5536,VALID,295.517,VALID,21.8057,VALID,125,VALID,1.81163,
2007-05-25, 07:45:00,VALID,916.627,VALID,0,VALID,85.9694,VALID,299.117,VALID,21.9164,VALID,121,VALID,1.29427,
2007-05-25, 07:46:00,VALID,916.622,VALID,0,VALID,85.4671,VALID,303.074,VALID,22.0362,VALID,118,VALID,1.61501,
2007-05-25, 07:47:00,VALID,916.634,VALID,0,VALID,84.5566,VALID,306.572,VALID,22.0947,VALID,126,VALID,2.30774,
2007-05-25, 07:48:00,VALID,916.646,VALID,0,VALID,84.062,VALID,310.07,VALID,22.0982,VALID,130,VALID,2.65048,
2007-05-25, 07:49:00,VALID,916.637,VALID,0,VALID,83.725,VALID,313.432,VALID,22.0985,VALID,138,VALID,2.34671,
2007-05-25, 07:50:00,VALID,916.651,VALID,0,VALID,83.7034,VALID,318.119,VALID,22.1247,VALID,135,VALID,2.27095,
2007-05-25, 07:51:00,VALID,916.628,VALID,0,VALID,84.5566,VALID,321.6,VALID,22.1345,VALID,130,VALID,1.65052,
2007-05-25, 07:52:00,VALID,916.628,VALID,0,VALID,84.3849,VALID,325.2,VALID,22.1442,VALID,125,VALID,2.26342,
2007-05-25, 07:53:00,VALID,916.615,VALID,0,VALID,84.3748,VALID,328.783,VALID,22.1699,VALID,122,VALID,1.96726,
2007-05-25, 07:54:00,VALID,916.637,VALID,0,VALID,83.767,VALID,332.536,VALID,22.2516,VALID,118,VALID,2.31377,
2007-05-25, 07:55:00,VALID,916.657,VALID,0,VALID,82.1075,VALID,336.798,VALID,22.2868,VALID,120,VALID,2.74834,
2007-05-25, 07:56:00,VALID,916.681,VALID,0,VALID,82.6251,VALID,340.788,VALID,22.3777,VALID,114,VALID,1.90661,
2007-05-25, 07:57:00,VALID,916.679,VALID,0,VALID,83.1375,VALID,343.811,VALID,22.4294,VALID,126,VALID,1.89735,
2007-05-25, 07:58:00,VALID,916.713,VALID,0,VALID,82.606,VALID,346.783,VALID,22.4722,VALID,121,VALID,2.56668,
2007-05-25, 07:59:00,VALID,916.733,VALID,0,VALID,82.5869,VALID,350.026,VALID,22.5008,VALID,126,VALID,2.18342,
2007-05-25, 08:00:00,VALID,916.735,VALID,0,VALID,81.7591,VALID,353.558,VALID,22.5628,VALID,120,VALID,2.37035,
2007-05-25, 08:01:00,VALID,916.745,VALID,0,VALID,81.0788,VALID,357.531,VALID,22.5799,VALID,122,VALID,3.09396,
2007-05-25, 08:02:00,VALID,916.769,VALID,0,VALID,80.7812,VALID,360.962,VALID,22.6026,VALID,113,VALID,2.72452,
2007-05-25, 08:03:00,VALID,916.78,VALID,0,VALID,81.5518,VALID,364.103,VALID,22.6413,VALID,124,VALID,1.94713,
2007-05-25, 08:04:00,VALID,916.764,VALID,0,VALID,80.5765,VALID,368.161,VALID,22.6806,VALID,102,VALID,3.00156,
2007-05-25, 08:05:00,VALID,916.817,VALID,0,VALID,81.7273,VALID,370.776,VALID,22.7491,VALID,141,VALID,1.74491,
2007-05-25, 08:06:00,VALID,916.816,VALID,0,VALID,80.7723,VALID,373.884,VALID,22.8137,VALID,109,VALID,1.88398,
2007-05-25, 08:07:00,VALID,916.851,VALID,0,VALID,80.3896,VALID,377.62,VALID,22.8365,VALID,109,VALID,2.77437,
2007-05-25, 08:08:00,VALID,916.864,VALID,0,VALID,80.5129,VALID,381.508,VALID,22.7848,VALID,122,VALID,3.05344,
2007-05-25, 08:09:00,VALID,916.851,VALID,0,VALID,80.8232,VALID,385.448,VALID,22.7326,VALID,116,VALID,2.92283,
2007-05-25, 08:10:00,VALID,916.85,VALID,0,VALID,80.8473,VALID,388.25,VALID,22.7556,VALID,125,VALID,2.81079,
2007-05-25, 08:11:00,VALID,916.861,VALID,0,VALID,80.7037,VALID,391.748,VALID,22.7512,VALID,118,VALID,2.63608,
2007-05-25, 08:12:00,VALID,916.841,VALID,0,VALID,80.7176,VALID,395.297,VALID,22.765,VALID,100,VALID,3.17525,
2007-05-25, 08:13:00,VALID,916.869,VALID,0,VALID,79.4867,VALID,398.846,VALID,22.843,VALID,103,VALID,3.30543,
2007-05-25, 08:14:00,VALID,916.867,VALID,0,VALID,80.1302,VALID,401.172,VALID,22.9472,VALID,109,VALID,2.60117,
2007-05-25, 08:15:00,VALID,916.887,VALID,0,VALID,79.7728,VALID,404.415,VALID,22.9992,VALID,98,VALID,2.39286,
2007-05-25, 08:16:00,VALID,916.87,VALID,0,VALID,79.6126,VALID,408.219,VALID,23.0836,VALID,74,VALID,2.61267,
2007-05-25, 08:17:00,VALID,916.902,VALID,0,VALID,80.4366,VALID,412.125,VALID,23.1746,VALID,91,VALID,2.25056,
2007-05-25, 08:18:00,VALID,916.91,VALID,0,VALID,80.3463,VALID,415.962,VALID,23.2977,VALID,80,VALID,1.76781,
2007-05-25, 08:19:00,VALID,916.908,VALID,0,VALID,79.0785,VALID,418.968,VALID,23.3952,VALID,70,VALID,3.3763,
2007-05-25, 08:20:00,VALID,916.936,VALID,0,VALID,78.8916,VALID,422.619,VALID,23.4114,VALID,116,VALID,2.53164,
2007-05-25, 08:21:00,VALID,916.947,VALID,0,VALID,79.652,VALID,425.455,VALID,23.4019,VALID,72,VALID,1.72856,
2007-05-25, 08:22:00,VALID,916.953,VALID,0,VALID,79.2922,VALID,429.258,VALID,23.4799,VALID,101,VALID,1.60742,
2007-05-25, 08:23:00,VALID,916.982,VALID,0,VALID,79.3087,VALID,432.281,VALID,23.5254,VALID,93,VALID,2.1317,
2007-05-25, 08:24:00,VALID,917.001,VALID,0,VALID,78.6411,VALID,434.573,VALID,23.5192,VALID,112,VALID,1.84938,
2007-05-25, 08:25:00,VALID,917.015,VALID,0,VALID,79.0671,VALID,435.711,VALID,23.5744,VALID,115,VALID,1.79524,
2007-05-25, 08:26:00,VALID,917.038,VALID,0,VALID,78.5966,VALID,440.89,VALID,23.5806,VALID,110,VALID,2.21928,
2007-05-25, 08:27:00,VALID,917.05,VALID,0,VALID,78.0473,VALID,445.017,VALID,23.6163,VALID,92,VALID,2.91353,
2007-05-25, 08:28:00,VALID,917.059,VALID,0,VALID,77.9964,VALID,446.562,VALID,23.6066,VALID,119,VALID,2.7896,
2007-05-25, 08:29:00,VALID,917.086,VALID,0,VALID,77.854,VALID,447.937,VALID,23.6559,VALID,112,VALID,2.12791,
2007-05-25, 08:30:00,VALID,917.088,VALID,0,VALID,78.1782,VALID,451.962,VALID,23.7466,VALID,83,VALID,2.14727,
2007-05-25, 08:31:00,VALID,917.111,VALID,0,VALID,77.6912,VALID,457.837,VALID,23.8145,VALID,100,VALID,2.13761,
2007-05-25, 08:32:00,VALID,917.13,VALID,0,VALID,77.8832,VALID,461.233,VALID,23.9282,VALID,120,VALID,1.52153,
2007-05-25, 08:33:00,VALID,917.123,VALID,0,VALID,76.8685,VALID,463.39,VALID,24.0617,VALID,137,VALID,1.92388,
2007-05-25, 08:34:00,VALID,917.109,VALID,0,VALID,76.9944,VALID,467.092,VALID,24.0744,VALID,96,VALID,2.50817,
2007-05-25, 08:35:00,VALID,917.128,VALID,0,VALID,76.2823,VALID,469.503,VALID,24.0957,VALID,131,VALID,2.66261,
2007-05-25, 08:36:00,VALID,917.09,VALID,0,VALID,76.3916,VALID,470.794,VALID,24.1538,VALID,89,VALID,1.89602,
2007-05-25, 08:37:00,VALID,917.067,VALID,0,VALID,74.9522,VALID,468.79,VALID,24.2321,VALID,128,VALID,3.71135,
2007-05-25, 08:38:00,VALID,917.103,VALID,0,VALID,76.2327,VALID,466.956,VALID,24.2422,VALID,117,VALID,1.93266,
2007-05-25, 08:39:00,VALID,917.124,VALID,0,VALID,76.4756,VALID,477.059,VALID,24.3075,VALID,116,VALID,1.72935,
2007-05-25, 08:40:00,VALID,917.116,VALID,0,VALID,77.8832,VALID,481.848,VALID,24.4696,VALID,53,VALID,1.90521,
2007-05-25, 08:41:00,VALID,917.122,VALID,0,VALID,75.7775,VALID,487.146,VALID,24.6688,VALID,44,VALID,2.95703,
2007-05-25, 08:42:00,VALID,917.139,VALID,0,VALID,74.5262,VALID,492.189,VALID,24.7816,VALID,101,VALID,2.65092,
2007-05-25, 08:43:00,VALID,917.135,VALID,0,VALID,74.5707,VALID,496.757,VALID,24.7582,VALID,90,VALID,2.0168,
2007-05-25, 08:44:00,VALID,917.133,VALID,0,VALID,74.0837,VALID,498.438,VALID,24.7819,VALID,90,VALID,2.52309,
2007-05-25, 08:45:00,VALID,917.114,VALID,0,VALID,72.8133,VALID,502.072,VALID,24.6749,VALID,96,VALID,2.4627,
2007-05-25, 08:46:00,VALID,917.121,VALID,0,VALID,73.72,VALID,504.263,VALID,24.7175,VALID,59,VALID,2.16442,
2007-05-25, 08:47:00,VALID,917.162,VALID,0,VALID,74.7564,VALID,509.561,VALID,24.8186,VALID,120,VALID,2.73556,
2007-05-25, 08:48:00,VALID,917.146,VALID,0,VALID,73.9934,VALID,514.366,VALID,24.7721,VALID,94,VALID,3.56562,
2007-05-25, 08:49:00,VALID,917.128,VALID,0,VALID,72.7803,VALID,517.066,VALID,24.7104,VALID,79,VALID,3.35828,
2007-05-25, 08:50:00,VALID,917.158,VALID,0,VALID,74.1625,VALID,517.763,VALID,24.7565,VALID,78,VALID,1.75056,
2007-05-25, 08:51:00,VALID,917.166,VALID,0,VALID,72.4281,VALID,521.227,VALID,24.8381,VALID,94,VALID,2.29688,
2007-05-25, 08:52:00,VALID,917.188,VALID,0,VALID,72.9214,VALID,525.234,VALID,24.9157,VALID,91,VALID,2.91536,
2007-05-25, 08:53:00,VALID,917.212,VALID,0,VALID,72.8795,VALID,528.698,VALID,24.934,VALID,98,VALID,1.92001,
2007-05-25, 08:54:00,VALID,917.23,VALID,0,VALID,73.0689,VALID,529.208,VALID,24.9606,VALID,78,VALID,1.84561,
2007-05-25, 08:55:00,VALID,917.215,VALID,0,VALID,72.7765,VALID,528.8,VALID,25.0516,VALID,93,VALID,2.2748,
2007-05-25, 08:56:00,VALID,917.224,VALID,0,VALID,72.7421,VALID,531.806,VALID,25.0883,VALID,54,VALID,2.6701,
2007-05-25, 08:57:00,VALID,917.231,VALID,0,VALID,73.0829,VALID,537.545,VALID,25.2635,VALID,44,VALID,2.34691,
2007-05-25, 08:58:00,VALID,917.231,VALID,0,VALID,72.1763,VALID,542.47,VALID,25.3971,VALID,64,VALID,1.69699,
2007-05-25, 08:59:00,VALID,917.226,VALID,0,VALID,71.7757,VALID,541.468,VALID,25.4985,VALID,76,VALID,1.87005,
2007-05-25, 09:00:00,VALID,917.221,VALID,0,VALID,72.0161,VALID,545.968,VALID,25.5186,VALID,75,VALID,1.98531,
2007-05-25, 09:01:00,VALID,917.242,VALID,0,VALID,71.22,VALID,548.209,VALID,25.5615,VALID,84,VALID,2.57908,
2007-05-25, 09:02:00,VALID,917.213,VALID,0,VALID,70.4164,VALID,549.568,VALID,25.4019,VALID,77,VALID,1.87481,
2007-05-25, 09:03:00,VALID,917.243,VALID,0,VALID,72.2869,VALID,548.43,VALID,25.4734,VALID,101,VALID,1.98145,
2007-05-25, 09:04:00,VALID,917.235,VALID,0,VALID,72.1241,VALID,545.339,VALID,25.4832,VALID,85,VALID,1.97372,
2007-05-25, 09:05:00,VALID,917.211,VALID,0,VALID,70.6275,VALID,546.256,VALID,25.4705,VALID,61,VALID,2.8459,
2007-05-25, 09:06:00,VALID,917.219,VALID,0,VALID,70.4685,VALID,539.617,VALID,25.4409,VALID,60,VALID,3.76261,
2007-05-25, 09:07:00,VALID,917.245,VALID,0,VALID,70.8767,VALID,539.668,VALID,25.3392,VALID,85,VALID,2.35625,
2007-05-25, 09:08:00,VALID,917.289,VALID,0,VALID,72.2958,VALID,544.185,VALID,25.4182,VALID,78,VALID,1.47962,
2007-05-25, 09:09:00,VALID,917.284,VALID,0,VALID,72.9596,VALID,547.581,VALID,25.6129,VALID,110,VALID,1.6889,
2007-05-25, 09:10:00,VALID,917.28,VALID,0,VALID,71.2747,VALID,558.618,VALID,25.62,VALID,82,VALID,3.05011,
2007-05-25, 09:11:00,VALID,917.301,VALID,0,VALID,72.0555,VALID,562.592,VALID,25.519,VALID,56,VALID,2.68452,
2007-05-25, 09:12:00,VALID,917.29,VALID,0,VALID,71.2022,VALID,564.918,VALID,25.5255,VALID,71,VALID,2.98571,
2007-05-25, 09:13:00,VALID,917.266,VALID,0,VALID,71.3357,VALID,569.792,VALID,25.492,VALID,56,VALID,3.58736,
2007-05-25, 09:14:00,VALID,917.299,VALID,0,VALID,72.0707,VALID,572.271,VALID,25.4816,VALID,64,VALID,2.29433,
2007-05-25, 09:15:00,VALID,917.307,VALID,0,VALID,71.9385,VALID,584.854,VALID,25.6123,VALID,58,VALID,2.13512,
2007-05-25, 09:16:00,VALID,917.286,VALID,0,VALID,71.234,VALID,589.507,VALID,25.687,VALID,63,VALID,2.28144,
2007-05-25, 09:17:00,VALID,917.281,VALID,0,VALID,71.6765,VALID,592.461,VALID,25.83,VALID,73,VALID,1.88906,
2007-05-25, 09:18:00,VALID,917.257,VALID,0,VALID,70.7432,VALID,594.855,VALID,25.9529,VALID,59,VALID,1.9838,
2007-05-25, 09:19:00,VALID,917.238,VALID,0,VALID,71.2137,VALID,598.812,VALID,25.9897,VALID,55,VALID,2.7798,
2007-05-25, 09:20:00,VALID,917.247,VALID,0,VALID,71.5646,VALID,600.544,VALID,26.07,VALID,58,VALID,2.62767,
2007-05-25, 09:21:00,VALID,917.26,VALID,0,VALID,70.2727,VALID,607.591,VALID,25.9604,VALID,84,VALID,2.55332,
2007-05-25, 09:22:00,VALID,917.247,VALID,0,VALID,70.2422,VALID,611.106,VALID,25.9051,VALID,62,VALID,3.33576,
2007-05-25, 09:23:01,VALID,917.286,VALID,0,VALID,69.7946,VALID,609.102,VALID,25.7878,VALID,64,VALID,2.58836,
2007-05-25, 09:24:00,VALID,917.307,VALID,0,VALID,70.5181,VALID,606.402,VALID,25.7777,VALID,83,VALID,2.4407,
2007-05-25, 09:25:00,VALID,917.303,VALID,0,VALID,71.5595,VALID,608.525,VALID,25.8463,VALID,61,VALID,2.74001,
2007-05-25, 09:26:00,VALID,917.31,VALID,0,VALID,70.0985,VALID,617.1,VALID,25.8304,VALID,77,VALID,2.88839,
2007-05-25, 09:27:00,VALID,917.336,VALID,0,VALID,70.7012,VALID,620.581,VALID,25.8856,VALID,112,VALID,1.88881,
2007-05-25, 09:28:00,VALID,917.337,VALID,0,VALID,70.4685,VALID,627.662,VALID,25.9633,VALID,96,VALID,2.83509,
2007-05-25, 09:29:00,VALID,917.351,VALID,0,VALID,69.5186,VALID,632.893,VALID,25.8856,VALID,115,VALID,3.10096,
2007-05-25, 09:30:01,VALID,917.389,VALID,0,VALID,71.5875,VALID,625.659,VALID,25.951,VALID,61,VALID,1.89916,
2007-05-25, 09:31:00,VALID,917.4,VALID,0,VALID,70.6198,VALID,618.119,VALID,26.0882,VALID,67,VALID,1.72935,
2007-05-25, 09:32:00,VALID,917.406,VALID,0,VALID,70.0705,VALID,630.277,VALID,26.2494,VALID,71,VALID,2.5407,
2007-05-25, 09:33:01,VALID,917.411,VALID,0,VALID,70.1201,VALID,642.351,VALID,26.2374,VALID,47,VALID,2.72441,
2007-05-25, 09:34:00,VALID,917.415,VALID,0,VALID,69.6623,VALID,640.33,VALID,26.4003,VALID,42,VALID,2.4484,
2007-05-25, 09:35:00,VALID,917.416,VALID,0,VALID,68.1237,VALID,646.155,VALID,26.5362,VALID,52,VALID,3.0293,
2007-05-25, 09:36:00,VALID,917.412,VALID,0,VALID,67.4357,VALID,650.468,VALID,26.4813,VALID,94,VALID,2.35117,
2007-05-25, 09:37:01,VALID,917.42,VALID,0,VALID,69.0163,VALID,654.288,VALID,26.5109,VALID,125,VALID,1.21317,
2007-05-25, 09:38:01,VALID,917.397,VALID,0,VALID,68.172,VALID,658.058,VALID,26.7057,VALID,99,VALID,1.55273,
2007-05-25, 09:39:00,VALID,917.384,VALID,0,VALID,67.8566,VALID,661.692,VALID,26.6345,VALID,125,VALID,2.09032,
2007-05-25, 09:40:00,VALID,917.416,VALID,0,VALID,69.038,VALID,663.407,VALID,26.641,VALID,123,VALID,2.11068,
2007-05-25, 09:41:01,VALID,917.401,VALID,0,VALID,68.2801,VALID,664.12,VALID,26.6377,VALID,95,VALID,1.70406,
2007-05-25, 09:42:00,VALID,917.418,VALID,0,VALID,69.127,VALID,668.603,VALID,26.6868,VALID,77,VALID,1.91425,
2007-05-25, 09:43:00,VALID,917.403,VALID,0,VALID,66.8521,VALID,672.016,VALID,26.5698,VALID,68,VALID,3.38814,
2007-05-25, 09:44:00,VALID,917.413,VALID,0,VALID,67.952,VALID,674.445,VALID,26.4133,VALID,62,VALID,2.69414,
2007-05-25, 09:45:00,VALID,917.432,VALID,0,VALID,69.0786,VALID,677.518,VALID,26.5568,VALID,47,VALID,2.22377,
2007-05-25, 09:46:00,VALID,917.416,VALID,0,VALID,67.4675,VALID,678.843,VALID,26.6442,VALID,43,VALID,1.925,
2007-05-25, 09:47:00,VALID,917.455,VALID,0,VALID,67.5947,VALID,676.975,VALID,26.7974,VALID,86,VALID,1.96035,
2007-05-25, 09:48:00,VALID,917.471,VALID,0,VALID,68.3348,VALID,668.111,VALID,26.8761,VALID,76,VALID,1.64589,
2007-05-25, 09:49:00,VALID,917.458,VALID,0,VALID,66.3905,VALID,667.805,VALID,26.801,VALID,95,VALID,3.58184,
2007-05-25, 09:50:01,VALID,917.479,VALID,0,VALID,69.2134,VALID,679.624,VALID,26.6023,VALID,75,VALID,2.45603,
2007-05-25, 09:51:00,VALID,917.471,VALID,0,VALID,67.5209,VALID,685.533,VALID,26.6293,VALID,74,VALID,2.18613,
2007-05-25, 09:52:00,VALID,917.471,VALID,0,VALID,67.0822,VALID,687.995,VALID,26.655,VALID,84,VALID,3.01054,
2007-05-25, 09:53:00,VALID,917.465,VALID,0,VALID,67.732,VALID,691.782,VALID,26.5509,VALID,71,VALID,3.18377,
2007-05-25, 09:54:01,VALID,917.454,VALID,0,VALID,66.9296,VALID,694.057,VALID,26.4859,VALID,104,VALID,3.0258,
2007-05-25, 09:55:00,VALID,917.424,VALID,0,VALID,68.1377,VALID,700.969,VALID,26.5187,VALID,62,VALID,3.02307,
2007-05-25, 09:56:00,VALID,917.42,VALID,0,VALID,66.9462,VALID,700.205,VALID,26.5097,VALID,60,VALID,4.64769,
2007-05-25, 09:57:00,VALID,917.419,VALID,0,VALID,66.8839,VALID,701.155,VALID,26.3627,VALID,59,VALID,3.63039,
2007-05-25, 09:58:01,VALID,917.427,VALID,0,VALID,67.6875,VALID,702.888,VALID,26.337,VALID,60,VALID,2.26953,
2007-05-25, 09:59:00,VALID,917.419,VALID,0,VALID,68.6094,VALID,707.438,VALID,26.4878,VALID,73,VALID,2.5607,
2007-05-25, 10:00:01,VALID,917.424,VALID,0,VALID,67.9037,VALID,708.05,VALID,26.5814,VALID,70,VALID,2.68359,
2007-05-25, 10:01:01,VALID,917.422,VALID,0,VALID,67.1038,VALID,707.235,VALID,26.6309,VALID,107,VALID,2.57031,
2007-05-25, 10:02:00,VALID,917.416,VALID,0,VALID,68.6285,VALID,708.916,VALID,26.7704,VALID,64,VALID,1.4135,
2007-05-25, 10:03:00,VALID,917.455,VALID,0,VALID,67.053,VALID,712.855,VALID,26.959,VALID,93,VALID,2.43022,
2007-05-25, 10:04:01,VALID,917.441,VALID,0,VALID,65.8055,VALID,713.857,VALID,26.8998,VALID,115,VALID,3.04324,
2007-05-25, 10:05:00,VALID,917.426,VALID,0,VALID,67.4459,VALID,719.087,VALID,26.8286,VALID,77,VALID,3.04726,
2007-05-25, 10:06:01,VALID,917.443,VALID,0,VALID,66.6016,VALID,719.393,VALID,26.7765,VALID,76,VALID,2.69766,
2007-05-25, 10:07:00,VALID,917.444,VALID,0,VALID,65.3719,VALID,717.406,VALID,26.8618,VALID,115,VALID,2.21389,
2007-05-25, 10:08:00,VALID,917.393,VALID,0,VALID,66.1005,VALID,724.114,VALID,26.9199,VALID,93,VALID,1.859,
2007-05-25, 10:09:01,VALID,917.403,VALID,0,VALID,66.3078,VALID,728.478,VALID,26.8867,VALID,79,VALID,2.47305,
2007-05-25, 10:10:01,VALID,917.378,VALID,0,VALID,67.7079,VALID,731.568,VALID,27.0399,VALID,89,VALID,1.28594,
2007-05-25, 10:11:01,VALID,917.342,VALID,0,VALID,66.0637,VALID,732.808,VALID,27.1707,VALID,34,VALID,2.68532,
2007-05-25, 10:12:00,VALID,917.361,VALID,0,VALID,65.2295,VALID,735.389,VALID,27.3485,VALID,71,VALID,2.621,
2007-05-25, 10:13:00,VALID,917.379,VALID,0,VALID,64.6751,VALID,734.794,VALID,27.3167,VALID,129,VALID,2.33727,
2007-05-25, 10:14:01,VALID,917.368,VALID,0,VALID,64.7819,VALID,712.702,VALID,27.2527,VALID,86,VALID,2.67442,
2007-05-25, 10:15:01,VALID,917.39,VALID,0,VALID,65.0438,VALID,729.513,VALID,27.1558,VALID,56,VALID,2.52046,
2007-05-25, 10:16:01,VALID,917.417,VALID,0,VALID,65.8818,VALID,737.223,VALID,27.2476,VALID,104,VALID,1.31157,
2007-05-25, 10:17:01,VALID,917.418,VALID,0,VALID,64.8531,VALID,748.413,VALID,27.3477,VALID,127,VALID,2.2342,
2007-05-25, 10:18:01,VALID,917.423,VALID,0,VALID,64.4614,VALID,748.753,VALID,27.2863,VALID,91,VALID,2.94996,
2007-05-25, 10:19:01,VALID,917.389,VALID,0,VALID,64.9129,VALID,743.404,VALID,27.2151,VALID,54,VALID,3.21227,
2007-05-25, 10:20:01,VALID,917.381,VALID,0,VALID,63.6336,VALID,746.919,VALID,27.1959,VALID,48,VALID,3.20827,
2007-05-25, 10:21:01,VALID,917.402,VALID,0,VALID,65.129,VALID,756.071,VALID,27.2544,VALID,73,VALID,2.49316,
2007-05-25, 10:22:01,VALID,917.387,VALID,0,VALID,65.1074,VALID,756.394,VALID,27.2928,VALID,72,VALID,1.97879,
2007-05-25, 10:23:01,VALID,917.383,VALID,0,VALID,63.5993,VALID,760.045,VALID,27.3123,VALID,79,VALID,2.17245,
2007-05-25, 10:24:01,VALID,917.381,VALID,0,VALID,64.1372,VALID,769.011,VALID,27.3578,VALID,117,VALID,1.48047,
2007-05-25, 10:25:01,VALID,917.379,VALID,0,VALID,64.9167,VALID,650.043,VALID,27.5052,VALID,125,VALID,2.4029,
2007-05-25, 10:26:00,VALID,917.364,VALID,0,VALID,63.7544,VALID,518.629,VALID,27.4489,VALID,109,VALID,1.69141,
2007-05-25, 10:27:00,VALID,917.346,VALID,0,VALID,63.125,VALID,769.028,VALID,27.3676,VALID,93,VALID,1.99947,
2007-05-25, 10:28:00,VALID,917.334,VALID,0,VALID,62.7766,VALID,778.826,VALID,27.3321,VALID,91,VALID,2.61719,
2007-05-25, 10:29:00,VALID,917.345,VALID,0,VALID,62.6876,VALID,777.773,VALID,27.3715,VALID,82,VALID,2.38876,
2007-05-25, 10:30:00,VALID,917.324,VALID,0,VALID,64.8073,VALID,783.309,VALID,27.3893,VALID,132,VALID,2.80717,
2007-05-25, 10:31:00,VALID,917.328,VALID,0,VALID,64.4843,VALID,792.529,VALID,27.4496,VALID,120,VALID,3.05305,
2007-05-25, 10:32:00,VALID,917.329,VALID,0,VALID,63.0131,VALID,803.618,VALID,27.3416,VALID,141,VALID,2.40244,
2007-05-25, 10:33:00,VALID,917.332,VALID,0,VALID,64.8633,VALID,504.025,VALID,27.3845,VALID,133,VALID,2.26215,
2007-05-25, 10:34:00,VALID,917.337,VALID,0,VALID,64.1563,VALID,772.118,VALID,27.4333,VALID,142,VALID,1.57065,
2007-05-25, 10:35:00,VALID,917.333,VALID,0,VALID,64.0126,VALID,800.578,VALID,27.476,VALID,69,VALID,2.19692,